Date String (YYYY-MM-DD hh:mm:ss) UTC,Instrument flags,Ambient pressure (hPa),Sample flow (lpm),Bypass flow (lpm),Sample temperature (°C),Ambient temperature (°C),ASC tube jacket temperature (°C),LED temperature (°C),Box temperature (°C),Sample RH (%),Span deviation,Mass concentration (μg/m³),Mass concentration (μg/m³),Mass concentration (μg/m³)
DateTimeUTC,F1_M11,P_M11,Q1_M11,Q2_M11,T1_M11,T2_M11,T3_M11,T4_M11,T5_M11,U1_M11,ZSPAN_M11,X0_M11,X2_M11,X1_M11
2021-10-28 00:00:00,,0824.1,4.99,0.00,28.1,27.2,00.0,37.1,29.9,08.8,0000.0,0004.18,0000.89,0000.68
2021-10-28 00:01:00,,0824.1,4.99,0.00,28.1,27.3,00.0,37.1,30.0,08.8,0000.0,0004.43,0000.90,0000.68
2021-10-28 00:02:00,,0824.1,4.99,0.00,28.1,27.3,00.0,37.1,30.0,08.9,0000.0,0004.30,0000.89,0000.67
2021-10-28 00:03:00,,0824.1,5.01,0.00,28.1,27.3,00.0,37.1,30.0,09.0,0000.0,0004.55,0000.91,0000.67
2021-10-28 00:04:00,,0824.1,4.99,0.00,28.1,27.3,00.0,37.1,30.0,09.0,0000.0,0005.51,0000.99,0000.67
2021-10-28 00:05:00,,0824.1,5.00,0.00,28.1,27.3,00.0,37.1,30.0,09.0,0000.0,0005.75,0001.03,0000.67
2021-10-28 00:06:00,,0824.1,5.00,0.00,28.1,27.3,00.0,37.1,30.0,09.0,0000.0,0005.94,0001.04,0000.67
2021-10-28 00:07:00,,0824.2,5.00,0.00,28.1,27.3,00.0,37.2,30.0,08.9,0000.0,0006.60,0001.05,0000.67
2021-10-28 00:08:00,,0824.1,4.99,0.00,28.1,27.3,00.0,37.1,29.9,08.8,0000.0,0006.27,0001.03,0000.67
2021-10-28 00:09:00,,0824.1,5.00,0.00,28.1,27.3,00.0,37.2,29.9,08.8,0000.0,0007.22,0001.03,0000.68
2021-10-28 00:10:00,,0824.1,5.00,0.00,28.1,27.3,00.0,37.2,30.0,08.9,0000.0,0007.84,0001.01,0000.67
2021-10-28 00:11:00,,0824.1,4.99,0.00,28.1,27.3,00.0,37.2,30.0,08.9,0000.0,0007.75,0001.00,0000.67
2021-10-28 00:12:00,,0824.1,5.01,0.00,28.2,27.3,00.0,37.2,30.0,08.9,0000.0,0007.43,0001.00,0000.66
2021-10-28 00:13:00,,0824.2,4.98,0.00,28.2,27.3,00.0,37.2,30.0,08.9,0000.0,0007.44,0001.01,0000.66
2021-10-28 00:14:00,,0824.2,5.01,0.00,28.2,27.3,00.0,37.2,30.0,08.9,0000.0,0007.35,0001.01,0000.65
2021-10-28 00:15:00,,0824.3,5.00,0.00,28.2,27.3,00.0,37.2,30.0,08.9,0000.0,0006.64,0000.93,0000.65
2021-10-28 00:16:00,,0824.2,5.01,0.00,28.2,27.3,00.0,37.2,30.0,08.9,0000.0,0005.96,0000.89,0000.64
2021-10-28 00:17:00,,0824.3,4.99,0.00,28.2,27.3,00.0,37.2,30.0,09.0,0000.0,0005.96,0000.85,0000.63
2021-10-28 00:18:00,,0824.3,5.01,0.00,28.2,27.3,00.0,37.2,30.0,08.9,0000.0,0005.10,0000.85,0000.63
2021-10-28 00:19:00,,0824.3,4.98,0.00,28.2,27.3,00.0,37.2,30.0,08.9,0000.0,0005.06,0000.87,0000.63
2021-10-28 00:20:00,,0824.3,5.01,0.00,28.2,27.3,00.0,37.2,30.0,08.9,0000.0,0004.52,0000.90,0000.64
2021-10-28 00:21:00,,0824.3,4.99,0.00,28.2,27.3,00.0,37.2,30.0,08.9,0000.0,0003.51,0000.91,0000.63
2021-10-28 00:22:00,,0824.4,5.00,0.00,28.2,27.3,00.0,37.2,30.0,09.0,0000.0,0001.87,0000.92,0000.63
2021-10-28 00:23:00,,0824.4,5.01,0.00,28.2,27.3,00.0,37.2,30.0,08.9,0000.0,0001.74,0000.93,0000.63
2021-10-28 00:24:00,,0824.4,4.99,0.00,28.2,27.3,00.0,37.2,30.0,08.9,0000.0,0002.35,0000.95,0000.63
2021-10-28 00:25:00,,0824.4,5.01,0.00,28.2,27.3,00.0,37.2,30.0,08.9,0000.0,0002.71,0000.99,0000.65
2021-10-28 00:26:00,,0824.4,5.00,0.00,28.2,27.4,00.0,37.2,30.0,08.9,0000.0,0002.98,0001.05,0000.66
2021-10-28 00:27:00,,0824.4,4.99,0.00,28.2,27.4,00.0,37.2,30.0,08.9,0000.0,0002.97,0001.04,0000.67
2021-10-28 00:28:00,,0824.4,5.01,0.00,28.2,27.4,00.0,37.2,30.0,09.0,0000.0,0002.98,0001.07,0000.68
2021-10-28 00:29:00,,0824.5,5.01,0.00,28.2,27.4,00.0,37.2,30.0,09.0,0000.0,0003.16,0001.09,0000.69
2021-10-28 00:30:00,,0824.5,5.00,0.00,28.2,27.3,00.0,37.2,30.0,09.1,0000.0,0005.16,0001.09,0000.69
2021-10-28 00:31:00,,0824.6,5.01,0.00,28.2,27.3,00.0,37.2,30.0,09.1,0000.0,0007.55,0001.07,0000.69
2021-10-28 00:32:00,,0824.4,5.00,0.00,28.2,27.3,00.0,37.2,30.0,09.1,0000.0,0007.68,0001.08,0000.69
2021-10-28 00:33:00,,0824.6,4.99,0.00,28.2,27.3,00.0,37.2,30.0,09.1,0000.0,0007.70,0001.11,0000.70
2021-10-28 00:34:00,,0824.8,5.00,0.00,28.2,27.3,00.0,37.2,30.0,09.1,0000.0,0007.87,0001.14,0000.72
2021-10-28 00:35:00,,0824.9,5.01,0.00,28.2,27.3,00.0,37.2,30.0,09.1,0000.0,0008.25,0001.14,0000.73
2021-10-28 00:36:00,,0824.7,5.00,0.00,28.2,27.3,00.0,37.2,29.9,09.1,0000.0,0008.32,0001.13,0000.73
2021-10-28 00:37:00,,0824.7,5.01,0.00,28.1,27.2,00.0,37.2,29.9,09.1,0000.0,0008.38,0001.15,0000.72
2021-10-28 00:38:00,,0824.8,4.99,0.00,28.1,27.3,00.0,37.2,29.9,09.2,0000.0,0008.91,0001.21,0000.72
2021-10-28 00:39:00,,0824.8,4.98,0.00,28.1,27.3,00.0,37.2,29.9,09.2,0000.0,0009.57,0001.25,0000.73
2021-10-28 00:40:00,,0824.6,5.00,0.00,28.1,27.2,00.0,37.2,29.9,09.2,0000.0,0009.69,0001.27,0000.73
2021-10-28 00:41:00,,0824.6,5.00,0.00,28.1,27.2,00.0,37.2,29.9,09.2,0000.0,0008.68,0001.30,0000.74
2021-10-28 00:42:00,,0824.6,5.01,0.00,28.1,27.2,00.0,37.2,29.8,09.2,0000.0,0007.45,0001.30,0000.74
2021-10-28 00:43:00,,0824.8,5.00,0.00,28.1,27.2,00.0,37.2,29.8,09.2,0000.0,0007.47,0001.35,0000.73
2021-10-28 00:44:00,,0824.9,5.01,0.00,28.1,27.2,00.0,37.2,29.8,09.3,0000.0,0007.55,0001.36,0000.74
2021-10-28 00:45:00,,0824.8,4.99,0.00,28.1,27.2,00.0,37.2,29.8,09.3,0000.0,0007.47,0001.33,0000.73
2021-10-28 00:46:00,,0824.8,5.01,0.00,28.1,27.2,00.0,37.2,29.8,09.3,0000.0,0007.33,0001.36,0000.73
2021-10-28 00:47:00,,0824.8,4.98,0.00,28.0,27.1,00.0,37.1,29.8,09.3,0000.0,0007.90,0001.36,0000.73
2021-10-28 00:48:00,,0824.8,5.02,0.00,28.0,27.1,00.0,37.1,29.8,09.3,0000.0,0008.91,0001.32,0000.73
2021-10-28 00:49:00,,0824.9,5.00,0.00,28.0,27.1,00.0,37.1,29.8,09.3,0000.0,0008.54,0001.30,0000.72
2021-10-28 00:50:00,,0824.9,5.00,0.00,28.0,27.2,00.0,37.1,29.8,09.2,0000.0,0007.82,0001.30,0000.72
2021-10-28 00:51:00,,0824.9,4.99,0.00,28.1,27.2,00.0,37.1,29.8,09.2,0000.0,0008.92,0001.30,0000.72
2021-10-28 00:52:00,,0825.0,4.99,0.00,28.1,27.2,00.0,37.1,29.9,09.2,0000.0,0009.37,0001.33,0000.72
2021-10-28 00:53:00,,0825.1,5.00,0.00,28.1,27.2,00.0,37.1,29.9,09.3,0000.0,0009.05,0001.31,0000.73
2021-10-28 00:54:00,,0825.1,5.00,0.00,28.1,27.2,00.0,37.1,29.9,09.3,0000.0,0008.97,0001.28,0000.74
2021-10-28 00:55:00,,0825.0,5.01,0.00,28.1,27.3,00.0,37.1,29.9,09.4,0000.0,0008.85,0001.25,0000.75
2021-10-28 00:56:00,,0825.0,4.99,0.00,28.1,27.3,00.0,37.1,29.9,09.4,0000.0,0009.25,0001.28,0000.76
2021-10-28 00:57:00,,0824.9,4.99,0.00,28.1,27.3,00.0,37.1,29.9,09.5,0000.0,0009.80,0001.26,0000.76
2021-10-28 00:58:00,,0824.9,5.00,0.00,28.1,27.3,00.0,37.1,29.9,09.5,0000.0,0009.22,0001.27,0000.76
2021-10-28 00:59:00,,0824.9,5.01,0.00,28.1,27.2,00.0,37.1,29.9,09.6,0000.0,0008.26,0001.27,0000.76
